Year,Month,Day,Hour,Minute,Value (Times are PST for temperature in C)
2009,07,03,00,00,17.30
2009,07,03,00,01,17.30
2009,07,03,00,02,17.30
2009,07,03,00,03,17.30
2009,07,03,00,04,17.30
2009,07,03,00,05,17.30
2009,07,03,00,06,17.30
2009,07,03,00,07,17.30
2009,07,03,00,08,17.30
2009,07,03,00,09,17.30
2009,07,03,00,10,17.30
2009,07,03,00,11,17.30
2009,07,03,00,12,17.30
2009,07,03,00,13,17.30
2009,07,03,00,14,17.30
2009,07,03,00,15,17.30
2009,07,03,00,16,17.30
2009,07,03,00,17,17.30
2009,07,03,00,18,17.30
2009,07,03,00,19,17.30
2009,07,03,00,20,17.30
2009,07,03,00,21,17.30
2009,07,03,00,22,17.30
2009,07,03,00,23,17.30
2009,07,03,00,24,17.30
2009,07,03,00,25,17.30
2009,07,03,00,26,17.30
2009,07,03,00,27,17.30
2009,07,03,00,28,17.30
2009,07,03,00,29,17.30
2009,07,03,00,30,17.30
2009,07,03,00,31,17.30
2009,07,03,00,32,17.30
2009,07,03,00,33,17.30
2009,07,03,00,34,17.30
2009,07,03,00,35,17.30
2009,07,03,00,36,17.30
2009,07,03,00,37,17.20
2009,07,03,00,38,17.20
2009,07,03,00,39,17.20
2009,07,03,00,40,17.20
2009,07,03,00,41,17.20
2009,07,03,00,42,17.30
2009,07,03,00,43,17.30
2009,07,03,00,44,17.30
2009,07,03,00,45,17.20
2009,07,03,00,46,17.20
2009,07,03,00,47,17.10
2009,07,03,00,48,17.10
2009,07,03,00,49,17.10
2009,07,03,00,50,17.00
2009,07,03,00,51,17.00
2009,07,03,00,52,17.00
2009,07,03,00,53,17.00
2009,07,03,00,54,17.00
2009,07,03,00,55,17.00
2009,07,03,00,56,16.90
2009,07,03,00,57,16.90
2009,07,03,00,58,16.90
2009,07,03,00,59,16.80
2009,07,03,01,00,16.80
2009,07,03,01,01,16.80
2009,07,03,01,02,16.70
2009,07,03,01,03,16.70
2009,07,03,01,04,16.70
2009,07,03,01,05,16.70
2009,07,03,01,06,16.70
2009,07,03,01,07,16.70
2009,07,03,01,08,16.70
2009,07,03,01,09,16.70
2009,07,03,01,10,16.70
2009,07,03,01,11,16.70
2009,07,03,01,12,16.70
2009,07,03,01,13,16.70
2009,07,03,01,14,16.70
2009,07,03,01,15,16.70
2009,07,03,01,16,16.70
2009,07,03,01,17,16.70
2009,07,03,01,18,16.60
2009,07,03,01,19,16.60
2009,07,03,01,20,16.50
2009,07,03,01,21,16.40
2009,07,03,01,22,16.40
2009,07,03,01,23,16.40
2009,07,03,01,24,16.40
2009,07,03,01,25,16.30
2009,07,03,01,26,16.30
2009,07,03,01,27,16.30
2009,07,03,01,28,16.20
2009,07,03,01,29,16.20
2009,07,03,01,30,16.10
2009,07,03,01,31,16.10
2009,07,03,01,32,16.10
2009,07,03,01,33,16.10
2009,07,03,01,34,16.10
2009,07,03,01,35,16.10
2009,07,03,01,36,16.10
2009,07,03,01,37,16.10
2009,07,03,01,38,16.10
2009,07,03,01,39,16.10
2009,07,03,01,40,16.10
2009,07,03,01,41,16.10
2009,07,03,01,42,16.00
2009,07,03,01,43,15.90
2009,07,03,01,44,15.90
2009,07,03,01,45,15.90
2009,07,03,01,46,15.90
2009,07,03,01,47,15.90
2009,07,03,01,48,15.80
2009,07,03,01,49,15.80
2009,07,03,01,50,15.80
2009,07,03,01,51,15.80
2009,07,03,01,52,15.80
2009,07,03,01,53,15.70
2009,07,03,01,54,15.70
2009,07,03,01,55,15.70
2009,07,03,01,56,15.70
2009,07,03,01,57,15.60
2009,07,03,01,58,15.60
2009,07,03,01,59,15.50
2009,07,03,02,00,15.50
2009,07,03,02,01,15.50
2009,07,03,02,02,15.50
2009,07,03,02,03,15.40
2009,07,03,02,04,15.40
2009,07,03,02,05,15.40
2009,07,03,02,06,15.40
2009,07,03,02,07,15.40
2009,07,03,02,08,15.30
2009,07,03,02,09,15.30
2009,07,03,02,10,15.30
2009,07,03,02,11,15.30
2009,07,03,02,12,15.30
2009,07,03,02,13,15.30
2009,07,03,02,14,15.20
2009,07,03,02,15,15.10
2009,07,03,02,16,15.10
2009,07,03,02,17,15.00
2009,07,03,02,18,15.00
2009,07,03,02,19,14.90
2009,07,03,02,20,14.90
2009,07,03,02,21,14.80
2009,07,03,02,22,14.80
2009,07,03,02,23,14.80
2009,07,03,02,24,14.80
2009,07,03,02,25,14.70
2009,07,03,02,26,14.70
2009,07,03,02,27,14.70
2009,07,03,02,28,14.60
2009,07,03,02,29,14.60
2009,07,03,02,30,14.60
2009,07,03,02,31,14.60
2009,07,03,02,32,14.60
2009,07,03,02,33,14.50
2009,07,03,02,34,14.50
2009,07,03,02,35,14.50
2009,07,03,02,36,14.50
2009,07,03,02,37,14.60
2009,07,03,02,38,14.60
2009,07,03,02,39,14.60
2009,07,03,02,40,14.70
2009,07,03,02,41,14.70
2009,07,03,02,42,14.70
2009,07,03,02,43,14.70
2009,07,03,02,44,14.80
2009,07,03,02,45,14.80
2009,07,03,02,46,14.90
2009,07,03,02,47,14.90
2009,07,03,02,48,15.00
2009,07,03,02,49,15.10
2009,07,03,02,50,15.20
2009,07,03,02,51,15.30
2009,07,03,02,52,15.30
2009,07,03,02,53,15.40
2009,07,03,02,54,15.50
2009,07,03,02,55,15.60
2009,07,03,02,56,15.60
2009,07,03,02,57,15.70
2009,07,03,02,58,15.80
2009,07,03,02,59,15.80
2009,07,03,03,00,15.80
2009,07,03,03,01,15.80
2009,07,03,03,02,15.90
2009,07,03,03,03,15.90
2009,07,03,03,04,16.00
2009,07,03,03,05,16.10
2009,07,03,03,06,16.10
2009,07,03,03,07,16.20
2009,07,03,03,08,16.20
2009,07,03,03,09,16.30
2009,07,03,03,10,16.30
2009,07,03,03,11,16.40
2009,07,03,03,12,16.40
2009,07,03,03,13,16.40
2009,07,03,03,14,16.40
2009,07,03,03,15,16.40
2009,07,03,03,16,16.40
2009,07,03,03,17,16.40
2009,07,03,03,18,16.40
2009,07,03,03,19,16.40
2009,07,03,03,20,16.30
2009,07,03,03,21,16.30
2009,07,03,03,22,16.20
2009,07,03,03,23,16.10
2009,07,03,03,24,16.00
2009,07,03,03,25,15.90
2009,07,03,03,26,15.80
2009,07,03,03,27,15.70
2009,07,03,03,28,15.60
2009,07,03,03,29,15.50
2009,07,03,03,30,15.40
2009,07,03,03,31,15.40
2009,07,03,03,32,15.30
2009,07,03,03,33,15.30
2009,07,03,03,34,15.20
2009,07,03,03,35,15.20
2009,07,03,03,36,15.30
2009,07,03,03,37,15.30
2009,07,03,03,38,15.30
2009,07,03,03,39,15.30
2009,07,03,03,40,15.30
2009,07,03,03,41,15.40
2009,07,03,03,42,15.40
2009,07,03,03,43,15.50
2009,07,03,03,44,15.50
2009,07,03,03,45,15.50
2009,07,03,03,46,15.50
2009,07,03,03,47,15.60
2009,07,03,03,48,15.60
2009,07,03,03,49,15.60
2009,07,03,03,50,15.60
2009,07,03,03,51,15.60
2009,07,03,03,52,15.60
2009,07,03,03,53,15.60
2009,07,03,03,54,15.60
2009,07,03,03,55,15.60
2009,07,03,03,56,15.60
2009,07,03,03,57,15.60
2009,07,03,03,58,15.60
2009,07,03,03,59,15.60
2009,07,03,04,00,15.50
2009,07,03,04,01,15.50
2009,07,03,04,02,15.50
2009,07,03,04,03,15.50
2009,07,03,04,04,15.40
2009,07,03,04,05,15.40
2009,07,03,04,06,15.30
2009,07,03,04,07,15.30
2009,07,03,04,08,15.30
2009,07,03,04,09,15.20
2009,07,03,04,10,15.20
2009,07,03,04,11,15.20
2009,07,03,04,12,15.10
2009,07,03,04,13,15.10
2009,07,03,04,14,15.00
2009,07,03,04,15,15.00
2009,07,03,04,16,14.90
2009,07,03,04,17,14.90
2009,07,03,04,18,14.90
2009,07,03,04,19,14.90
2009,07,03,04,20,14.90
2009,07,03,04,21,14.80
2009,07,03,04,22,14.80
2009,07,03,04,23,14.70
2009,07,03,04,24,14.70
2009,07,03,04,25,14.60
2009,07,03,04,26,14.60
2009,07,03,04,27,14.50
2009,07,03,04,28,14.50
2009,07,03,04,29,14.40
2009,07,03,04,30,14.40
2009,07,03,04,31,14.30
2009,07,03,04,32,14.20
2009,07,03,04,33,14.20
2009,07,03,04,34,14.20
2009,07,03,04,35,14.10
2009,07,03,04,36,14.00
2009,07,03,04,37,14.00
2009,07,03,04,38,14.00
2009,07,03,04,39,13.90
2009,07,03,04,40,13.90
2009,07,03,04,41,13.90
2009,07,03,04,42,13.80
2009,07,03,04,43,13.80
2009,07,03,04,44,13.80
2009,07,03,04,45,13.80
2009,07,03,04,46,13.80
2009,07,03,04,47,13.80
2009,07,03,04,48,13.70
2009,07,03,04,49,13.70
2009,07,03,04,50,13.70
2009,07,03,04,51,13.70
2009,07,03,04,52,13.70
2009,07,03,04,53,13.70
2009,07,03,04,54,13.70
2009,07,03,04,55,13.60
2009,07,03,04,56,13.60
2009,07,03,04,57,13.50
2009,07,03,04,58,13.50
2009,07,03,04,59,13.50
2009,07,03,05,00,13.50
2009,07,03,05,01,13.50
2009,07,03,05,02,13.50
2009,07,03,05,03,13.50
2009,07,03,05,04,13.50
2009,07,03,05,05,13.50
2009,07,03,05,06,13.50
2009,07,03,05,07,13.50
2009,07,03,05,08,13.50
2009,07,03,05,09,13.50
2009,07,03,05,10,13.50
2009,07,03,05,11,13.50
2009,07,03,05,12,13.50
2009,07,03,05,13,13.50
2009,07,03,05,14,13.40
2009,07,03,05,15,13.40
2009,07,03,05,16,13.40
2009,07,03,05,17,13.40
2009,07,03,05,18,13.40
2009,07,03,05,19,13.40
2009,07,03,05,20,13.40
2009,07,03,05,21,13.40
2009,07,03,05,22,13.40
2009,07,03,05,23,13.40
2009,07,03,05,24,13.40
2009,07,03,05,25,13.40
2009,07,03,05,26,13.40
2009,07,03,05,27,13.40
2009,07,03,05,28,13.40
2009,07,03,05,29,13.40
2009,07,03,05,30,13.40
2009,07,03,05,31,13.40
2009,07,03,05,32,13.40
2009,07,03,05,33,13.30
2009,07,03,05,34,13.30
2009,07,03,05,35,13.30
2009,07,03,05,36,13.30
2009,07,03,05,37,13.30
2009,07,03,05,38,13.30
2009,07,03,05,39,13.30
2009,07,03,05,40,13.30
2009,07,03,05,41,13.30
2009,07,03,05,42,13.30
2009,07,03,05,43,13.30
2009,07,03,05,44,13.20
2009,07,03,05,45,13.20
2009,07,03,05,46,13.20
2009,07,03,05,47,13.20
2009,07,03,05,48,13.10
2009,07,03,05,49,13.10
2009,07,03,05,50,13.10
2009,07,03,05,51,13.10
2009,07,03,05,52,13.10
2009,07,03,05,53,13.10
2009,07,03,05,54,13.10
2009,07,03,05,55,13.10
2009,07,03,05,56,13.10
2009,07,03,05,57,13.10
2009,07,03,05,58,13.10
2009,07,03,05,59,13.10
2009,07,03,06,00,13.10
2009,07,03,06,01,13.10
2009,07,03,06,02,13.20
2009,07,03,06,03,13.20
2009,07,03,06,04,13.20
2009,07,03,06,05,13.20
2009,07,03,06,06,13.30
2009,07,03,06,07,13.30
2009,07,03,06,08,13.30
2009,07,03,06,09,13.30
2009,07,03,06,10,13.30
2009,07,03,06,11,13.40
2009,07,03,06,12,13.40
2009,07,03,06,13,13.50
2009,07,03,06,14,13.50
2009,07,03,06,15,13.50
2009,07,03,06,16,13.60
2009,07,03,06,17,13.60
2009,07,03,06,18,13.60
2009,07,03,06,19,13.70
2009,07,03,06,20,13.70
2009,07,03,06,21,13.70
2009,07,03,06,22,13.70
2009,07,03,06,23,13.70
2009,07,03,06,24,13.70
2009,07,03,06,25,13.80
2009,07,03,06,26,13.80
2009,07,03,06,27,13.80
2009,07,03,06,28,13.80
2009,07,03,06,29,13.90
2009,07,03,06,30,13.90
2009,07,03,06,31,14.00
2009,07,03,06,32,14.00
2009,07,03,06,33,14.00
2009,07,03,06,34,14.10
2009,07,03,06,35,14.10
2009,07,03,06,36,14.10
2009,07,03,06,37,14.20
2009,07,03,06,38,14.20
2009,07,03,06,39,14.20
2009,07,03,06,40,14.20
2009,07,03,06,41,14.20
2009,07,03,06,42,14.30
2009,07,03,06,43,14.30
2009,07,03,06,44,14.40
2009,07,03,06,45,14.40
2009,07,03,06,46,14.40
2009,07,03,06,47,14.50
2009,07,03,06,48,14.50
2009,07,03,06,49,14.60
2009,07,03,06,50,14.60
2009,07,03,06,51,14.70
2009,07,03,06,52,14.80
2009,07,03,06,53,14.80
2009,07,03,06,54,14.80
2009,07,03,06,55,14.90
2009,07,03,06,56,15.00
2009,07,03,06,57,15.10
2009,07,03,06,58,15.10
2009,07,03,06,59,15.20
2009,07,03,07,00,15.30
2009,07,03,07,01,15.40
2009,07,03,07,02,15.40
2009,07,03,07,03,15.50
2009,07,03,07,04,15.60
2009,07,03,07,05,15.70
2009,07,03,07,06,15.80
2009,07,03,07,07,15.80
2009,07,03,07,08,15.80
2009,07,03,07,09,15.90
2009,07,03,07,10,15.90
2009,07,03,07,11,16.00
2009,07,03,07,12,16.10
2009,07,03,07,13,16.10
2009,07,03,07,14,16.10
2009,07,03,07,15,16.10
2009,07,03,07,16,16.10
2009,07,03,07,17,16.10
2009,07,03,07,18,16.10
2009,07,03,07,19,16.10
2009,07,03,07,20,16.20
2009,07,03,07,21,16.20
2009,07,03,07,22,16.20
2009,07,03,07,23,16.30
2009,07,03,07,24,16.40
2009,07,03,07,25,16.40
2009,07,03,07,26,16.60
2009,07,03,07,27,16.70
2009,07,03,07,28,16.90
2009,07,03,07,29,17.00
2009,07,03,07,30,17.10
2009,07,03,07,31,17.30
2009,07,03,07,32,17.30
2009,07,03,07,33,17.40
2009,07,03,07,34,17.50
2009,07,03,07,35,17.60
2009,07,03,07,36,17.70
2009,07,03,07,37,17.80
2009,07,03,07,38,17.80
2009,07,03,07,39,17.90
2009,07,03,07,40,17.90
2009,07,03,07,41,17.90
2009,07,03,07,42,17.90
2009,07,03,07,43,17.90
2009,07,03,07,44,17.90
2009,07,03,07,45,17.90
2009,07,03,07,46,17.90
2009,07,03,07,47,17.90
2009,07,03,07,48,17.90
2009,07,03,07,49,17.90
2009,07,03,07,50,18.00
2009,07,03,07,51,18.10
2009,07,03,07,52,18.20
2009,07,03,07,53,18.20
2009,07,03,07,54,18.20
2009,07,03,07,55,18.30
2009,07,03,07,56,18.30
2009,07,03,07,57,18.40
2009,07,03,07,58,18.40
2009,07,03,07,59,18.50
2009,07,03,08,00,18.50
2009,07,03,08,01,18.60
2009,07,03,08,02,18.60
2009,07,03,08,03,18.70
2009,07,03,08,04,18.70
2009,07,03,08,05,18.80
2009,07,03,08,06,18.80
2009,07,03,08,07,18.80
2009,07,03,08,08,18.80
2009,07,03,08,09,18.90
2009,07,03,08,10,18.90
2009,07,03,08,11,18.90
2009,07,03,08,12,18.90
2009,07,03,08,13,18.90
2009,07,03,08,14,18.90
2009,07,03,08,15,19.00
2009,07,03,08,16,19.10
2009,07,03,08,17,19.10
2009,07,03,08,18,19.10
2009,07,03,08,19,19.20
2009,07,03,08,20,19.20
2009,07,03,08,21,19.20
2009,07,03,08,22,19.20
2009,07,03,08,23,19.30
2009,07,03,08,24,19.30
2009,07,03,08,25,19.30
2009,07,03,08,26,19.30
2009,07,03,08,27,19.30
2009,07,03,08,28,19.40
2009,07,03,08,29,19.40
2009,07,03,08,30,19.50
2009,07,03,08,31,19.60
2009,07,03,08,32,19.60
2009,07,03,08,33,19.70
2009,07,03,08,34,19.80
2009,07,03,08,35,19.90
2009,07,03,08,36,19.90
2009,07,03,08,37,20.00
2009,07,03,08,38,20.10
2009,07,03,08,39,20.10
2009,07,03,08,40,20.10
2009,07,03,08,41,19.90
2009,07,03,08,42,19.80
2009,07,03,08,43,19.70
2009,07,03,08,44,19.60
2009,07,03,08,45,19.60
2009,07,03,08,46,19.60
2009,07,03,08,47,19.60
2009,07,03,08,48,19.50
2009,07,03,08,49,19.50
2009,07,03,08,50,19.50
2009,07,03,08,51,19.50
2009,07,03,08,52,19.50
2009,07,03,08,53,19.50
2009,07,03,08,54,19.50
2009,07,03,08,55,19.50
2009,07,03,08,56,19.50
2009,07,03,08,57,19.50
2009,07,03,08,58,19.60
2009,07,03,08,59,19.60
2009,07,03,09,00,19.70
2009,07,03,09,01,19.70
2009,07,03,09,02,19.80
2009,07,03,09,03,19.80
2009,07,03,09,04,19.80
2009,07,03,09,05,19.90
2009,07,03,09,06,19.90
2009,07,03,09,07,19.90
2009,07,03,09,08,19.90
2009,07,03,09,09,19.90
2009,07,03,09,10,19.90
2009,07,03,09,11,19.90
2009,07,03,09,12,19.90
2009,07,03,09,13,19.90
2009,07,03,09,14,19.80
2009,07,03,09,15,19.70
2009,07,03,09,16,19.60
2009,07,03,09,17,19.40
2009,07,03,09,18,19.30
2009,07,03,09,19,19.30
2009,07,03,09,20,19.30
2009,07,03,09,21,19.20
2009,07,03,09,22,19.20
2009,07,03,09,23,19.30
2009,07,03,09,24,19.30
2009,07,03,09,25,19.40
2009,07,03,09,26,19.40
2009,07,03,09,27,19.50
2009,07,03,09,28,19.60
2009,07,03,09,29,19.60
2009,07,03,09,30,19.80
2009,07,03,09,31,19.90
2009,07,03,09,32,19.80
2009,07,03,09,33,19.80
2009,07,03,09,34,19.70
2009,07,03,09,35,19.70
2009,07,03,09,36,19.70
2009,07,03,09,37,19.80
2009,07,03,09,38,19.80
2009,07,03,09,39,19.80
2009,07,03,09,40,19.80
2009,07,03,09,41,19.80
2009,07,03,09,42,19.80
2009,07,03,09,43,19.80
2009,07,03,09,44,19.80
2009,07,03,09,45,19.80
2009,07,03,09,46,19.80
2009,07,03,09,47,19.90
2009,07,03,09,48,19.90
2009,07,03,09,49,19.90
2009,07,03,09,50,19.90
2009,07,03,09,51,19.90
2009,07,03,09,52,20.00
2009,07,03,09,53,20.10
2009,07,03,09,54,20.10
2009,07,03,09,55,20.10
2009,07,03,09,56,20.10
2009,07,03,09,57,20.00
2009,07,03,09,58,19.90
2009,07,03,09,59,19.90
2009,07,03,10,00,19.90
2009,07,03,10,01,19.90
2009,07,03,10,02,20.00
2009,07,03,10,03,20.10
2009,07,03,10,04,20.10
2009,07,03,10,05,20.10
2009,07,03,10,06,20.20
2009,07,03,10,07,20.30
2009,07,03,10,08,20.30
2009,07,03,10,09,20.30
2009,07,03,10,10,20.30
2009,07,03,10,11,20.20
2009,07,03,10,12,20.20
2009,07,03,10,13,20.10
2009,07,03,10,14,20.10
2009,07,03,10,15,19.90
2009,07,03,10,16,19.90
2009,07,03,10,17,19.90
2009,07,03,10,18,19.90
2009,07,03,10,19,20.00
2009,07,03,10,20,20.10
2009,07,03,10,21,20.10
2009,07,03,10,22,20.10
2009,07,03,10,23,20.00
2009,07,03,10,24,20.00
2009,07,03,10,25,20.10
2009,07,03,10,26,20.10
2009,07,03,10,27,20.10
2009,07,03,10,28,20.10
2009,07,03,10,29,20.00
2009,07,03,10,30,19.90
2009,07,03,10,31,20.00
2009,07,03,10,32,20.10
2009,07,03,10,33,20.10
2009,07,03,10,34,20.20
2009,07,03,10,35,20.20
2009,07,03,10,36,20.20
2009,07,03,10,37,20.20
2009,07,03,10,38,20.20
2009,07,03,10,39,20.30
2009,07,03,10,40,20.30
2009,07,03,10,41,20.30
2009,07,03,10,42,20.40
2009,07,03,10,43,20.40
2009,07,03,10,44,20.50
2009,07,03,10,45,20.50
2009,07,03,10,46,20.50
2009,07,03,10,47,20.60
2009,07,03,10,48,20.60
2009,07,03,10,49,20.60
2009,07,03,10,50,20.50
2009,07,03,10,51,20.50
2009,07,03,10,52,20.40
2009,07,03,10,53,20.40
2009,07,03,10,54,20.30
2009,07,03,10,55,20.40
2009,07,03,10,56,20.40
2009,07,03,10,57,20.40
2009,07,03,10,58,20.50
2009,07,03,10,59,20.50
2009,07,03,11,00,20.50
2009,07,03,11,01,20.50
2009,07,03,11,02,20.50
2009,07,03,11,03,20.50
2009,07,03,11,04,20.50
2009,07,03,11,05,20.50
2009,07,03,11,06,20.50
2009,07,03,11,07,20.50
2009,07,03,11,08,20.60
2009,07,03,11,09,20.60
2009,07,03,11,10,20.60
2009,07,03,11,11,20.60
2009,07,03,11,12,20.70
2009,07,03,11,13,20.80
2009,07,03,11,14,20.80
2009,07,03,11,15,20.90
2009,07,03,11,16,21.00
2009,07,03,11,17,21.10
2009,07,03,11,18,21.20
2009,07,03,11,19,21.20
2009,07,03,11,20,21.30
2009,07,03,11,21,21.30
2009,07,03,11,22,21.30
2009,07,03,11,23,21.50
2009,07,03,11,24,21.60
2009,07,03,11,25,21.60
2009,07,03,11,26,21.60
2009,07,03,11,27,21.60
2009,07,03,11,28,21.60
2009,07,03,11,29,21.70
2009,07,03,11,30,21.70
2009,07,03,11,31,21.80
2009,07,03,11,32,21.90
2009,07,03,11,33,22.00
2009,07,03,11,34,22.00
2009,07,03,11,35,22.00
2009,07,03,11,36,22.00
2009,07,03,11,37,22.10
2009,07,03,11,38,22.00
2009,07,03,11,39,22.10
2009,07,03,11,40,22.10
2009,07,03,11,41,22.10
2009,07,03,11,42,22.00
2009,07,03,11,43,22.10
2009,07,03,11,44,22.20
2009,07,03,11,45,22.20
2009,07,03,11,46,22.20
2009,07,03,11,47,22.10
2009,07,03,11,48,22.10
2009,07,03,11,49,22.20
2009,07,03,11,50,22.20
2009,07,03,11,51,22.30
2009,07,03,11,52,22.40
2009,07,03,11,53,22.30
2009,07,03,11,54,22.20
2009,07,03,11,55,22.20
2009,07,03,11,56,22.10
2009,07,03,11,57,22.10
2009,07,03,11,58,22.10
2009,07,03,11,59,22.10
2009,07,03,12,00,22.10
2009,07,03,12,01,22.20
2009,07,03,12,02,22.30
2009,07,03,12,03,22.30
2009,07,03,12,04,22.20
2009,07,03,12,05,22.20
2009,07,03,12,06,22.30
2009,07,03,12,07,22.30
2009,07,03,12,08,22.30
2009,07,03,12,09,22.40
2009,07,03,12,10,22.50
2009,07,03,12,11,22.50
2009,07,03,12,12,22.50
2009,07,03,12,13,22.60
2009,07,03,12,14,22.70
2009,07,03,12,15,22.70
2009,07,03,12,16,22.80
2009,07,03,12,17,22.80
2009,07,03,12,18,22.90
2009,07,03,12,19,22.80
2009,07,03,12,20,22.70
2009,07,03,12,21,22.60
2009,07,03,12,22,22.50
2009,07,03,12,23,22.40
2009,07,03,12,24,22.30
2009,07,03,12,25,22.40
2009,07,03,12,26,22.50
2009,07,03,12,27,22.60
2009,07,03,12,28,22.70
2009,07,03,12,29,22.80
2009,07,03,12,30,22.80
2009,07,03,12,31,22.80
2009,07,03,12,32,22.80
2009,07,03,12,33,22.70
2009,07,03,12,34,22.70
2009,07,03,12,35,22.70
2009,07,03,12,36,22.60
2009,07,03,12,37,22.70
2009,07,03,12,38,22.70
2009,07,03,12,39,22.80
2009,07,03,12,40,22.80
2009,07,03,12,41,22.80
2009,07,03,12,42,22.70
2009,07,03,12,43,22.60
2009,07,03,12,44,22.50
2009,07,03,12,45,22.50
2009,07,03,12,46,22.50
2009,07,03,12,47,22.50
2009,07,03,12,48,22.60
2009,07,03,12,49,22.60
2009,07,03,12,50,22.70
2009,07,03,12,51,22.60
2009,07,03,12,52,22.60
2009,07,03,12,53,22.70
2009,07,03,12,54,22.70
2009,07,03,12,55,22.70
2009,07,03,12,56,22.80
2009,07,03,12,57,22.80
2009,07,03,12,58,22.90
2009,07,03,12,59,22.90
2009,07,03,13,00,23.10
2009,07,03,13,01,23.30
2009,07,03,13,02,23.30
2009,07,03,13,03,23.30
2009,07,03,13,04,23.30
2009,07,03,13,05,23.30
2009,07,03,13,06,23.30
2009,07,03,13,07,23.30
2009,07,03,13,08,23.40
2009,07,03,13,09,23.40
2009,07,03,13,10,23.50
2009,07,03,13,11,23.60
2009,07,03,13,12,23.70
2009,07,03,13,13,23.80
2009,07,03,13,14,23.80
2009,07,03,13,15,23.70
2009,07,03,13,16,23.70
2009,07,03,13,17,23.70
2009,07,03,13,18,23.70
2009,07,03,13,19,23.60
2009,07,03,13,20,23.40
2009,07,03,13,21,23.40
2009,07,03,13,22,23.30
2009,07,03,13,23,23.30
2009,07,03,13,24,23.30
2009,07,03,13,25,23.40
2009,07,03,13,26,23.50
2009,07,03,13,27,23.70
2009,07,03,13,28,23.70
2009,07,03,13,29,23.70
2009,07,03,13,30,23.70
2009,07,03,13,31,23.70
2009,07,03,13,32,23.70
2009,07,03,13,33,23.70
2009,07,03,13,34,23.70
2009,07,03,13,35,23.70
2009,07,03,13,36,23.70
2009,07,03,13,37,23.60
2009,07,03,13,38,23.50
2009,07,03,13,39,23.60
2009,07,03,13,40,23.60
2009,07,03,13,41,23.60
2009,07,03,13,42,23.60
2009,07,03,13,43,23.70
2009,07,03,13,44,23.60
2009,07,03,13,45,23.60
2009,07,03,13,46,23.70
2009,07,03,13,47,23.80
2009,07,03,13,48,23.90
2009,07,03,13,49,24.00
2009,07,03,13,50,24.10
2009,07,03,13,51,24.10
2009,07,03,13,52,24.10
2009,07,03,13,53,24.10
2009,07,03,13,54,24.10
2009,07,03,13,55,24.10
2009,07,03,13,56,23.90
2009,07,03,13,57,23.90
2009,07,03,13,58,24.00
2009,07,03,13,59,24.10
2009,07,03,14,00,24.10
2009,07,03,14,01,24.20
2009,07,03,14,02,24.30
2009,07,03,14,03,24.40
2009,07,03,14,04,24.50
2009,07,03,14,05,24.60
2009,07,03,14,06,24.60
2009,07,03,14,07,24.50
2009,07,03,14,08,24.50
2009,07,03,14,09,24.50
2009,07,03,14,10,24.40
2009,07,03,14,11,24.40
2009,07,03,14,12,24.50
2009,07,03,14,13,24.50
2009,07,03,14,14,24.50
2009,07,03,14,15,24.60
2009,07,03,14,16,24.70
2009,07,03,14,17,24.70
2009,07,03,14,18,24.60
2009,07,03,14,19,24.50
2009,07,03,14,20,24.40
2009,07,03,14,21,24.40
2009,07,03,14,22,24.40
2009,07,03,14,23,24.50
2009,07,03,14,24,24.50
2009,07,03,14,25,24.60
2009,07,03,14,26,24.70
2009,07,03,14,27,24.70
2009,07,03,14,28,24.80
2009,07,03,14,29,24.90
2009,07,03,14,30,25.00
2009,07,03,14,31,25.00
2009,07,03,14,32,25.10
2009,07,03,14,33,25.10
2009,07,03,14,34,25.10
2009,07,03,14,35,25.00
2009,07,03,14,36,24.90
2009,07,03,14,37,24.90
2009,07,03,14,38,25.00
2009,07,03,14,39,25.00
2009,07,03,14,40,25.00
2009,07,03,14,41,25.00
2009,07,03,14,42,25.10
2009,07,03,14,43,25.10
2009,07,03,14,44,25.10
2009,07,03,14,45,25.20
2009,07,03,14,46,25.40
2009,07,03,14,47,25.40
2009,07,03,14,48,25.60
2009,07,03,14,49,25.70
2009,07,03,14,50,25.60
2009,07,03,14,51,25.60
2009,07,03,14,52,25.60
2009,07,03,14,53,25.40
2009,07,03,14,54,25.40
2009,07,03,14,55,25.30
2009,07,03,14,56,25.20
2009,07,03,14,57,25.20
2009,07,03,14,58,25.20
2009,07,03,14,59,25.10
2009,07,03,15,00,25.10
2009,07,03,15,01,25.10
2009,07,03,15,02,25.10
2009,07,03,15,03,25.10
2009,07,03,15,04,25.10
2009,07,03,15,05,25.10
2009,07,03,15,06,25.20
2009,07,03,15,07,25.20
2009,07,03,15,08,25.20
2009,07,03,15,09,25.30
2009,07,03,15,10,25.30
2009,07,03,15,11,25.30
2009,07,03,15,12,25.20
2009,07,03,15,13,25.20
2009,07,03,15,14,25.00
2009,07,03,15,15,24.80
2009,07,03,15,16,24.70
2009,07,03,15,17,24.60
2009,07,03,15,18,24.60
2009,07,03,15,19,24.60
2009,07,03,15,20,24.70
2009,07,03,15,21,24.80
2009,07,03,15,22,24.80
2009,07,03,15,23,24.90
2009,07,03,15,24,25.00
2009,07,03,15,25,25.00
2009,07,03,15,26,25.00
2009,07,03,15,27,24.90
2009,07,03,15,28,24.90
2009,07,03,15,29,24.80
2009,07,03,15,30,24.80
2009,07,03,15,31,24.80
2009,07,03,15,32,24.70
2009,07,03,15,33,24.70
2009,07,03,15,34,24.70
2009,07,03,15,35,24.80
2009,07,03,15,36,24.90
2009,07,03,15,37,25.00
2009,07,03,15,38,25.20
2009,07,03,15,39,25.30
2009,07,03,15,40,25.30
2009,07,03,15,41,25.20
2009,07,03,15,42,25.20
2009,07,03,15,43,25.30
2009,07,03,15,44,25.40
2009,07,03,15,45,25.30
2009,07,03,15,46,25.30
2009,07,03,15,47,25.30
2009,07,03,15,48,25.30
2009,07,03,15,49,25.40
2009,07,03,15,50,25.60
2009,07,03,15,51,25.70
2009,07,03,15,52,25.80
2009,07,03,15,53,25.80
2009,07,03,15,54,25.80
2009,07,03,15,55,25.80
2009,07,03,15,56,25.60
2009,07,03,15,57,25.40
2009,07,03,15,58,25.40
2009,07,03,15,59,25.50
2009,07,03,16,00,25.60
2009,07,03,16,01,25.60
2009,07,03,16,02,25.60
2009,07,03,16,03,25.60
2009,07,03,16,04,25.60
2009,07,03,16,05,25.60
2009,07,03,16,06,25.60
2009,07,03,16,07,25.70
2009,07,03,16,08,25.60
2009,07,03,16,09,25.50
2009,07,03,16,10,25.40
2009,07,03,16,11,25.40
2009,07,03,16,12,25.20
2009,07,03,16,13,25.10
2009,07,03,16,14,25.20
2009,07,03,16,15,25.20
2009,07,03,16,16,25.30
2009,07,03,16,17,25.40
2009,07,03,16,18,25.60
2009,07,03,16,19,25.80
2009,07,03,16,20,26.00
2009,07,03,16,21,26.20
2009,07,03,16,22,26.40
2009,07,03,16,23,26.60
2009,07,03,16,24,26.80
2009,07,03,16,25,26.80
2009,07,03,16,26,26.90
2009,07,03,16,27,27.00
2009,07,03,16,28,27.20
2009,07,03,16,29,27.30
2009,07,03,16,30,27.30
2009,07,03,16,31,27.30
2009,07,03,16,32,27.40
2009,07,03,16,33,27.40
2009,07,03,16,34,27.30
2009,07,03,16,35,27.30
2009,07,03,16,36,27.30
2009,07,03,16,37,27.30
2009,07,03,16,38,27.20
2009,07,03,16,39,27.20
2009,07,03,16,40,27.20
2009,07,03,16,41,27.20
2009,07,03,16,42,27.20
2009,07,03,16,43,27.30
2009,07,03,16,44,27.30
2009,07,03,16,45,27.20
2009,07,03,16,46,27.30
2009,07,03,16,47,27.20
2009,07,03,16,48,27.20
2009,07,03,16,49,27.00
2009,07,03,16,50,26.80
2009,07,03,16,51,26.80
2009,07,03,16,52,26.90
2009,07,03,16,53,27.00
2009,07,03,16,54,27.10
2009,07,03,16,55,27.20
2009,07,03,16,56,27.30
2009,07,03,16,57,27.30
2009,07,03,16,58,27.30
2009,07,03,16,59,27.30
2009,07,03,17,00,27.20
2009,07,03,17,01,27.10
2009,07,03,17,02,27.00
2009,07,03,17,03,26.90
2009,07,03,17,04,26.90
2009,07,03,17,05,26.90
2009,07,03,17,06,26.80
2009,07,03,17,07,26.70
2009,07,03,17,08,26.70
2009,07,03,17,09,26.60
2009,07,03,17,10,26.70
2009,07,03,17,11,26.70
2009,07,03,17,12,26.60
2009,07,03,17,13,26.60
2009,07,03,17,14,26.60
2009,07,03,17,15,26.60
2009,07,03,17,16,26.50
2009,07,03,17,17,26.40
2009,07,03,17,18,26.40
2009,07,03,17,19,26.40